* Astronomy

Members Login
Username 
 
Password 
    Remember Me  
Post Info TOPIC: Asteroid 2012 VN6


L

Posts: 131433
Date:
Asteroid 2012 VN6
Permalink  
 


Orbital elements:
2012 VN6                                                 Earth MOID = 0.2130 AU
Epoch 2012 Sept. 30.0 TT = JDT 2456200.5                MPC
M  79.16754              (2000.0)            P               Q
n   0.93130905     Peri.   25.84863     -0.47078967     +0.85624426
a   1.0385008      Node   217.15496     -0.85815228     -0.50037082
e   0.4554162      Incl.   20.61083     -0.20477242     +0.12835425
P   1.06           H   21.6           G   0.15           U   9
From 9 observations 2012 Nov. 4-6

MPEC 2012 - V33



__________________
Page 1 of 1  sorted by
 
Quick Reply

Please log in to post quick replies.



Create your own FREE Forum
Report Abuse
Powered by ActiveBoard